Home > Weather > Hat Yai > Past weeks

Flag for Thailand Weather for the Past 2 Weeks in Hat Yai, Thailand

Now
90 °F

Scattered clouds.


Feels Like: 103 °F
Forecast: 76 / 98 °F
Wind: 3 mph from East

Location: Hat Yai Airport

Current Time: Apr 30, 2016 at 11:14:57 AM

Latest Report: Apr 30, 2016 at 10:00 AM


Visibility: N/A

Pressure: 29.83 "Hg

Humidity: 67%

Dew Point: 77 °F

Location of Hat YaiLocation

Historic Weather in Hat Yai — Graph

°F

Hat Yai Temperature Yesterday

Maximum temperature yesterday: 99 °F (at 1:30 PM)
Minimum temperature yesterday: 77 °F (at 6:00 AM)
Average temperature yesterday: 86 °F

High & Low Weather Summary for the Past Weeks

 TemperatureHumidityPressure
High102 °F (Apr 28, 2:30 PM)100% (Apr 17, 11:00 PM)29.89 "Hg (Apr 17, 11:00 PM)
Low73 °F (Apr 24, 5:00 AM)33% (Apr 15, 3:00 PM)29.65 "Hg (Apr 24, 3:30 PM)
Average86 °F74%29.79 "Hg
* Reported Apr 15 9:00 AM — Apr 30 9:30 AM, Hat Yai, Weather by CustomWeather, © 2016

Note: Actual official high and low records may vary slightly from our data, if they occured in-between our weather recording intervals... More about our weather records

Advertising

Hat Yai Weather History for the Previous 24 Hours

Scroll right to see more
 ConditionsComfort  
Time TempWeatherWind HumidityBarometerVisibility
9:30 AM
Sat, Apr 30
88 °FScattered clouds.3 mph70%29.86 "HgN/A
8:30 AM86 °FPassing clouds.2 mph79%29.86 "Hg6 mi
8:00 AM82 °FPassing clouds.2 mph89%29.83 "Hg6 mi
7:30 AM81 °FPassing clouds.2 mph89%29.83 "Hg5 mi
6:30 AM79 °FPassing clouds.3 mph94%29.80 "Hg4 mi
6:00 AM77 °FPassing clouds.3 mph100%29.80 "Hg4 mi
5:30 AM77 °FPassing clouds.2 mph94%29.80 "Hg4 mi
5:00 AM77 °FPassing clouds.2 mph94%29.80 "Hg4 mi
4:30 AM77 °FPassing clouds.2 mph100%29.80 "Hg5 mi
4:00 AM77 °FPassing clouds.2 mph94%29.77 "Hg5 mi
3:30 AM79 °FPassing clouds.2 mph94%29.77 "Hg6 mi
3:00 AM79 °FPassing clouds.3 mph94%29.77 "HgN/A
2:30 AM81 °FPassing clouds.2 mph89%29.80 "HgN/A
2:00 AM81 °FPassing clouds.No wind89%29.80 "HgN/A
1:30 AM79 °FPassing clouds.3 mph94%29.80 "HgN/A
1:00 AM81 °FPassing clouds.3 mph89%29.83 "HgN/A
12:30 AM81 °FPassing clouds.2 mph94%29.83 "HgN/A
12:00 AM81 °FPassing clouds.2 mph89%29.83 "HgN/A
11:30 PM
Fri, Apr 29
82 °FPassing clouds.3 mph84%29.83 "HgN/A
11:00 PM82 °FPassing clouds.3 mph84%29.83 "HgN/A
10:30 PM82 °FPassing clouds.5 mph84%29.83 "HgN/A
10:00 PM84 °FPassing clouds.No wind84%29.83 "HgN/A
9:30 PM84 °FPassing clouds.No wind84%29.83 "HgN/A
9:00 PM84 °FPassing clouds.5 mph84%29.80 "HgN/A
8:30 PM86 °FPassing clouds.5 mph79%29.80 "HgN/A
8:00 PM86 °FPassing clouds.5 mph79%29.77 "HgN/A
7:30 PM86 °FPassing clouds.6 mph79%29.77 "HgN/A
7:00 PM86 °FPassing clouds.6 mph75%29.77 "HgN/A
6:30 PM88 °FPassing clouds.12 mph70%29.74 "HgN/A
6:00 PM90 °FPassing clouds.12 mph63%29.74 "HgN/A
5:30 PM93 °FPassing clouds.10 mph49%29.71 "HgN/A
5:00 PM95 °FPassing clouds.12 mph44%29.71 "HgN/A
4:30 PM95 °FPassing clouds.12 mph47%29.68 "HgN/A
4:00 PM95 °FPassing clouds.10 mph47%29.68 "HgN/A
3:30 PM97 °FPassing clouds.10 mph47%29.71 "HgN/A
3:00 PM97 °FPassing clouds.10 mph50%29.71 "HgN/A
2:30 PM97 °FScattered clouds.9 mph47%29.74 "HgN/A
2:00 PM97 °FScattered clouds.7 mph44%29.74 "HgN/A
1:30 PM99 °FScattered clouds.7 mph42%29.77 "HgN/A
1:00 PM97 °FScattered clouds.9 mph47%29.77 "HgN/A
12:30 PM95 °FScattered clouds.7 mph50%29.80 "HgN/A
11:30 AM95 °FScattered clouds.7 mph56%29.83 "HgN/A
11:00 AM95 °FScattered clouds.2 mph50%29.83 "HgN/A
Weather by CustomWeather, © 2016

See weather overviewHow to use our weather pages